TimeMST,TemperatureF,Dew PointF,Humidity,Sea Level PressureIn,VisibilityMPH,Wind Direction,Wind SpeedMPH,Gust SpeedMPH,PrecipitationIn,Events,Conditions,WindDirDegrees,DateUTC
12:15 AM,46.4,23.0,40,30.13,10.0,South,9.2,-,N/A,,Clear,170,2013-04-01 07:15:00
12:35 AM,46.4,23.0,40,30.13,10.0,South,10.4,-,N/A,,Clear,180,2013-04-01 07:35:00
12:55 AM,44.6,23.0,43,30.12,10.0,South,10.4,-,N/A,,Clear,170,2013-04-01 07:55:00
1:15 AM,42.8,21.2,42,30.12,10.0,South,6.9,-,N/A,,Clear,170,2013-04-01 08:15:00
1:35 AM,41.0,21.2,45,30.12,10.0,South,8.1,-,N/A,,Clear,180,2013-04-01 08:35:00
1:55 AM,41.0,23.0,49,30.12,10.0,South,6.9,-,N/A,,Clear,180,2013-04-01 08:55:00
2:15 AM,39.2,23.0,52,30.12,10.0,South,8.1,-,N/A,,Clear,190,2013-04-01 09:15:00
2:35 AM,41.0,23.0,49,30.11,10.0,South,10.4,-,N/A,,Clear,180,2013-04-01 09:35:00
2:55 AM,41.0,23.0,49,30.12,10.0,South,9.2,-,N/A,,Clear,180,2013-04-01 09:55:00
3:15 AM,41.0,21.2,45,30.11,10.0,South,10.4,-,N/A,,Clear,180,2013-04-01 10:15:00
3:35 AM,41.0,21.2,45,30.11,10.0,South,10.4,-,N/A,,Clear,180,2013-04-01 10:35:00
3:55 AM,41.0,23.0,49,30.11,10.0,South,10.4,-,N/A,,Clear,180,2013-04-01 10:55:00
4:15 AM,39.2,23.0,52,30.11,10.0,South,9.2,-,N/A,,Clear,180,2013-04-01 11:15:00
4:35 AM,39.2,23.0,52,30.11,10.0,South,9.2,-,N/A,,Clear,180,2013-04-01 11:35:00
4:55 AM,39.2,21.2,49,30.11,10.0,South,9.2,-,N/A,,Clear,180,2013-04-01 11:55:00
5:15 AM,39.2,21.2,49,30.11,10.0,South,9.2,-,N/A,,Clear,180,2013-04-01 12:15:00
5:35 AM,39.2,23.0,52,30.11,10.0,South,9.2,-,N/A,,Clear,180,2013-04-01 12:35:00
5:55 AM,39.2,23.0,52,30.11,10.0,South,9.2,-,N/A,,Clear,180,2013-04-01 12:55:00
6:15 AM,39.2,23.0,52,30.11,10.0,South,8.1,-,N/A,,Clear,180,2013-04-01 13:15:00
6:35 AM,41.0,23.0,49,30.12,10.0,SSW,6.9,-,N/A,,Clear,200,2013-04-01 13:35:00
6:55 AM,41.0,23.0,49,30.13,10.0,SSW,3.5,-,N/A,,Clear,210,2013-04-01 13:55:00
7:15 AM,44.6,24.8,46,30.14,10.0,South,5.8,-,N/A,,Clear,190,2013-04-01 14:15:00
7:35 AM,46.4,24.8,43,30.13,10.0,South,6.9,-,N/A,,Clear,190,2013-04-01 14:35:00
7:55 AM,50.0,26.6,40,30.13,10.0,SSW,9.2,-,N/A,,Clear,200,2013-04-01 14:55:00
8:15 AM,51.8,28.4,41,30.13,10.0,SSW,11.5,-,N/A,,Clear,200,2013-04-01 15:15:00
8:35 AM,53.6,28.4,38,30.13,10.0,SW,13.8,-,N/A,,Clear,220,2013-04-01 15:35:00
8:55 AM,55.4,28.4,36,30.12,10.0,SSW,19.6,23.0,N/A,,Clear,210,2013-04-01 15:55:00
9:15 AM,55.4,28.4,36,30.12,10.0,SSW,17.3,23.0,N/A,,Clear,210,2013-04-01 16:15:00
9:35 AM,55.4,26.6,33,30.12,10.0,SSW,24.2,31.1,N/A,,Clear,210,2013-04-01 16:35:00
9:55 AM,57.2,26.6,31,30.12,10.0,SSW,20.7,27.6,N/A,,Clear,200,2013-04-01 16:55:00
10:15 AM,57.2,24.8,29,30.12,10.0,SSW,23.0,29.9,N/A,,Clear,210,2013-04-01 17:15:00
10:35 AM,57.2,24.8,29,30.12,10.0,SSW,21.9,29.9,N/A,,Clear,200,2013-04-01 17:35:00
10:55 AM,59.0,24.8,27,30.12,10.0,SSW,17.3,29.9,N/A,,Clear,210,2013-04-01 17:55:00
11:15 AM,57.2,24.8,29,30.12,10.0,SW,20.7,27.6,N/A,,Clear,220,2013-04-01 18:15:00
11:35 AM,57.2,23.0,27,30.11,10.0,SSW,19.6,28.8,N/A,,Clear,200,2013-04-01 18:35:00
11:55 AM,59.0,23.0,25,30.10,10.0,SW,20.7,28.8,N/A,,Clear,220,2013-04-01 18:55:00
12:15 PM,59.0,21.2,23,30.10,10.0,SW,20.7,27.6,N/A,,Clear,220,2013-04-01 19:15:00
12:35 PM,59.0,19.4,22,30.10,10.0,SSW,19.6,33.4,N/A,,Clear,210,2013-04-01 19:35:00
12:55 PM,59.0,17.6,20,30.08,10.0,SW,19.6,33.4,N/A,,Clear,230,2013-04-01 19:55:00
1:15 PM,60.8,19.4,20,30.08,10.0,SW,21.9,28.8,N/A,,Clear,230,2013-04-01 20:15:00
1:35 PM,62.6,10.4,13,30.08,10.0,SW,25.3,35.7,N/A,,Clear,220,2013-04-01 20:35:00
1:55 PM,62.6,12.2,14,30.07,10.0,SW,26.5,34.5,N/A,,Clear,220,2013-04-01 20:55:00
2:15 PM,62.6,14.0,15,30.07,10.0,SW,24.2,33.4,N/A,,Clear,230,2013-04-01 21:15:00
2:35 PM,62.6,10.4,13,30.06,10.0,SSW,24.2,34.5,N/A,,Clear,210,2013-04-01 21:35:00
2:55 PM,62.6,8.6,12,30.06,10.0,SW,20.7,31.1,N/A,,Clear,220,2013-04-01 21:55:00
3:15 PM,62.6,15.8,16,30.04,10.0,WSW,27.6,33.4,N/A,,Clear,240,2013-04-01 22:15:00
3:35 PM,59.0,14.0,17,30.04,10.0,SSW,23.0,33.4,N/A,,Clear,210,2013-04-01 22:35:00
3:55 PM,60.8,14.0,16,30.04,10.0,SSW,21.9,32.2,N/A,,Clear,210,2013-04-01 22:55:00
4:15 PM,59.0,14.0,17,30.04,10.0,SW,19.6,28.8,N/A,,Clear,220,2013-04-01 23:15:00
4:35 PM,59.0,14.0,17,30.04,10.0,SSW,19.6,29.9,N/A,,Clear,210,2013-04-01 23:35:00
4:55 PM,59.0,14.0,17,30.04,10.0,SSW,24.2,28.8,N/A,,Clear,200,2013-04-01 23:55:00
5:15 PM,57.2,15.8,20,30.04,10.0,SSW,18.4,29.9,N/A,,Clear,210,2013-04-02 00:15:00
5:35 PM,57.2,15.8,20,30.04,10.0,SW,20.7,26.5,N/A,,Clear,220,2013-04-02 00:35:00
5:55 PM,55.4,15.8,21,30.05,10.0,SW,17.3,25.3,N/A,,Clear,220,2013-04-02 00:55:00
6:15 PM,53.6,15.8,22,30.05,10.0,SW,17.3,25.3,N/A,,Clear,220,2013-04-02 01:15:00
6:35 PM,53.6,15.8,22,30.05,10.0,SW,17.3,25.3,N/A,,Clear,220,2013-04-02 01:35:00
6:55 PM,51.8,15.8,24,30.05,10.0,SW,19.6,26.5,N/A,,Clear,220,2013-04-02 01:55:00
7:15 PM,51.8,17.6,26,30.05,10.0,SW,20.7,26.5,N/A,,Clear,220,2013-04-02 02:15:00
7:35 PM,50.0,19.4,30,30.06,10.0,SW,17.3,25.3,N/A,,Clear,220,2013-04-02 02:35:00
7:55 PM,50.0,17.6,28,30.07,10.0,SW,16.1,-,N/A,,Clear,220,2013-04-02 02:55:00
8:15 PM,50.0,17.6,28,30.08,10.0,SW,11.5,-,N/A,,Clear,220,2013-04-02 03:15:00
8:35 PM,48.2,19.4,32,30.08,10.0,SW,9.2,-,N/A,,Clear,220,2013-04-02 03:35:00
8:55 PM,48.2,19.4,32,30.08,10.0,SW,11.5,-,N/A,,Clear,220,2013-04-02 03:55:00
9:15 PM,46.4,19.4,34,30.07,10.0,SW,10.4,-,N/A,,Clear,220,2013-04-02 04:15:00
9:35 PM,44.6,19.4,37,30.08,10.0,South,10.4,-,N/A,,Clear,190,2013-04-02 04:35:00
9:55 PM,44.6,19.4,37,30.08,10.0,South,10.4,-,N/A,,Clear,190,2013-04-02 04:55:00
10:15 PM,44.6,19.4,37,30.08,10.0,SSW,8.1,-,N/A,,Clear,200,2013-04-02 05:15:00
10:35 PM,41.0,19.4,42,30.07,10.0,West,3.5,-,N/A,,Clear,260,2013-04-02 05:35:00
10:55 PM,39.2,17.6,42,30.07,10.0,South,3.5,-,N/A,,Clear,180,2013-04-02 05:55:00
11:15 PM,39.2,19.4,45,30.07,10.0,SSW,4.6,-,N/A,,Clear,200,2013-04-02 06:15:00
11:35 PM,39.2,19.4,45,30.06,10.0,South,8.1,-,N/A,,Clear,190,2013-04-02 06:35:00
11:55 PM,39.2,19.4,45,30.05,10.0,South,9.2,-,N/A,,Clear,180,2013-04-02 06:55:00